Location: *
(49.5667°N, 1.3667°W)
Time: 04:35:33
(UTC+00:00)

SJ-11-01 - Pass Details

Date: 20 September 2019
Orbit: 684 x 702 km, 98.0° (Epoch: 20 October)

Event Time Altitude Azimuth Distance (km) Brightness Sun altitude
Exits shadow 19:16:33 - 159° (SSE) 3,004 7.2 -11.7°
Reaches altitude 10° 19:18:37 10° 157° (SSE) 2,164 6.5 -12.0°
Maximum altitude 19:23:20 74° 74° (ENE) 733 4.3 -12.7°
Drops below altitude 10° 19:28:06 10° 349° (N) 2,175 7.2 -13.5°
Sets 19:30:22 0° 348° (NNW) 3,095 8.1 -13.8°
